Temp
-14 -14 -14 -14 -14 -14 -14 -13 -13 -13 -13 -13 -13 -13 -13 -13 -13 -13 -13 -14 -12 -12 -13 -14 -13 -13 -12 -12 -12 -12 -11 -11
-14 -14 -14 -14 -14 -13 -13 -13 -13 -13 -12 -13 -13 -13 -13 -12 -13 -13 -13 -13 -14 -12 -12 -14 -14 -13 -13 -12 -12 -12 -12 -12
-14 -14 -14 -14 -14 -13 -13 -12 -12 -12 -12 -12 -12 -12 -12 -12 -12 -12 -14 -13 -14 -13 -12 -13 -14 -13 -13 -13 -12 -13 -12 -12
-14 -14 -14 -14 -14 -14 -13 -13 -13 -14 -14 -15 -15 -13 -14 -14 -13 -12 -12 -13 -13 -13 -12 -12 -14 -14 -13 -13 -12 -13 -13 -12
-15 -15 -15 -15 -14 -14 -14 -14 -16 -17 -18 -17 -17 -17 -18 -17 -16 -15 -14 -12 -12 -11 -12 -12 -13 -14 -13 -13 -13 -13 -13 -13
-15 -15 -15 -15 -15 -15 -16 -18 -17 -17 -17 -16 -17 -17 -17 -17 -17 -17 -15 -14 -11 -14 -13 -12 -12 -14 -14 -14 -13 -13 -13 -13
-15 -15 -15 -15 -16 -18 -18 -17 -17 -17 -17 -17 -17 -17 -17 -17 -17 -17 -16 -16 -14 -11 -14 -12 -13 -15 -15 -14 -13 -13 -13 -13
-15 -15 -16 -16 -18 -19 -18 -18 -17 -17 -17 -17 -18 -18 -18 -18 -17 -17 -16 -16 -15 -14 -12 -13 -13 -14 -15 -14 -14 -13 -13 -13
-16 -16 -17 -19 -19 -19 -18 -17 -18 -18 -18 -19 -20 -20 -19 -19 -18 -17 -16 -17 -16 -15 -12 -13 -15 -15 -15 -15 -15 -14 -13 -13
-17 -17 -19 -19 -19 -19 -17 -17 -18 -18 -19 -20 -21 -21 -20 -19 -18 -18 -18 -15 -16 -16 -13 -11 -13 -15 -16 -15 -15 -14 -13 -13
-17 -18 -19 -19 -19 -19 -17 -17 -18 -18 -19 -20 -21 -21 -21 -19 -19 -19 -18 -18 -15 -16 -14 -12 -14 -14 -15 -15 -16 -15 -13 -13
-17 -18 -19 -19 -19 -19 -17 -18 -18 -19 -19 -20 -21 -20 -20 -19 -18 -17 -17 -16 -16 -15 -14 -13 -13 -15 -15 -15 -16 -15 -14 -14
-17 -19 -19 -19 -19 -19 -17 -18 -18 -18 -19 -20 -20 -20 -20 -19 -18 -18 -17 -16 -16 -16 -14 -15 -15 -15 -16 -15 -15 -14 -14 -14
-18 -19 -20 -20 -20 -19 -18 -18 -18 -18 -18 -19 -18 -18 -19 -19 -18 -17 -18 -17 -17 -16 -16 -15 -15 -16 -15 -15 -15 -14 -14 -14
-18 -19 -20 -20 -20 -19 -19 -17 -18 -18 -18 -18 -18 -18 -17 -17 -17 -17 -17 -16 -16 -15 -14 -14 -14 -15 -15 -15 -15 -15 -15 -15
-19 -20 -20 -20 -20 -20 -19 -18 -17 -18 -18 -18 -18 -18 -18 -17 -17 -16 -15 -16 -16 -13 -14 -14 -14 -14 -14 -15 -15 -15 -16 -15
-19 -19 -20 -20 -20 -20 -19 -19 -18 -17 -18 -18 -18 -18 -18 -18 -17 -17 -17 -17 -16 -16 -16 -15 -14 -12 -15 -15 -15 -16 -16 -15
-19 -19 -20 -20 -20 -20 -19 -19 -19 -18 -17 -18 -18 -18 -18 -17 -17 -17 -17 -17 -17 -17 -16 -16 -16 -15 -15 -15 -16 -16 -16 -16
-19 -20 -20 -20 -20 -20 -20 -19 -19 -19 -18 -18 -18 -17 -17 -17 -17 -17 -17 -17 -16 -16 -16 -16 -16 -16 -16 -16 -16 -16 -15 -15
Height
5742 5742 5738 5738 5738 5736 5734 5733 5730 5730 5730 5728 5730 5730 5734 5737 5739 5744 5748 5752 5755 5760 5764 5769 5773 5775 5777 5779 5781 5782 5782 5784
5731 5730 5727 5726 5722 5719 5715 5714 5710 5706 5707 5709 5708 5709 5713 5717 5724 5727 5733 5739 5742 5749 5754 5759 5764 5767 5769 5771 5773 5777 5777 5778
5718 5715 5712 5709 5705 5701 5697 5694 5690 5682 5679 5679 5679 5683 5688 5693 5699 5706 5713 5723 5727 5735 5742 5748 5754 5758 5761 5764 5767 5770 5772 5773
5707 5703 5698 5693 5687 5681 5676 5671 5665 5656 5648 5647 5645 5649 5655 5662 5671 5681 5694 5705 5714 5717 5728 5734 5742 5748 5751 5756 5758 5762 5766 5767
5694 5690 5684 5677 5670 5664 5656 5649 5640 5635 5626 5625 5623 5621 5627 5638 5644 5649 5667 5681 5680 5687 5706 5720 5729 5736 5741 5746 5749 5753 5757 5762
5682 5677 5671 5663 5653 5642 5632 5628 5624 5616 5611 5603 5601 5601 5606 5613 5619 5626 5637 5654 5662 5665 5690 5701 5714 5723 5730 5735 5739 5743 5749 5755
5672 5665 5657 5645 5631 5621 5616 5612 5605 5593 5588 5582 5578 5579 5584 5589 5601 5604 5616 5631 5636 5641 5669 5685 5697 5710 5718 5726 5729 5732 5739 5745
5660 5652 5641 5628 5616 5609 5602 5595 5587 5578 5568 5560 5553 5551 5555 5563 5580 5592 5598 5611 5629 5647 5660 5666 5679 5697 5705 5713 5718 5723 5729 5736
5648 5639 5628 5616 5607 5601 5591 5580 5573 5562 5549 5538 5529 5527 5531 5540 5561 5577 5585 5595 5619 5628 5629 5632 5663 5684 5693 5698 5707 5713 5718 5725
5639 5629 5617 5609 5601 5592 5580 5569 5561 5548 5535 5523 5513 5508 5514 5526 5544 5556 5566 5581 5600 5607 5621 5610 5648 5668 5680 5685 5694 5702 5708 5715
5631 5621 5613 5604 5594 5584 5573 5562 5555 5546 5532 5519 5507 5498 5503 5514 5523 5539 5553 5551 5582 5594 5603 5613 5632 5654 5664 5673 5683 5690 5696 5704
5624 5614 5605 5598 5589 5577 5569 5560 5554 5546 5534 5523 5512 5505 5507 5513 5527 5540 5554 5567 5576 5586 5604 5616 5618 5640 5654 5664 5672 5679 5685 5693
5616 5607 5600 5594 5586 5575 5565 5560 5553 5548 5539 5531 5523 5517 5517 5524 5539 5552 5556 5563 5574 5582 5598 5615 5624 5634 5646 5656 5662 5669 5676 5682
5609 5602 5596 5590 5584 5573 5565 5560 5554 5550 5543 5537 5535 5535 5533 5535 5541 5543 5550 5563 5573 5583 5597 5604 5616 5628 5637 5646 5654 5661 5666 5672
5603 5596 5590 5586 5580 5572 5565 5560 5555 5551 5548 5543 5539 5535 5539 5543 5547 5548 5557 5567 5572 5580 5587 5598 5608 5618 5628 5635 5643 5650 5657 5662
5596 5591 5586 5582 5577 5570 5563 5557 5555 5552 5548 5547 5544 5543 5543 5542 5545 5546 5551 5561 5568 5561 5559 5580 5594 5604 5610 5622 5632 5640 5645 5651
5590 5585 5580 5576 5572 5568 5562 5556 5552 5551 5548 5546 5547 5545 5546 5547 5547 5547 5551 5557 5566 5564 5570 5563 5577 5589 5604 5615 5622 5628 5634 5639
5584 5579 5575 5571 5568 5565 5561 5555 5549 5548 5546 5544 5545 5546 5546 5547 5548 5550 5554 5559 5565 5566 5566 5567 5574 5588 5597 5605 5612 5617 5623 5629
5577 5572 5568 5565 5562 5560 5557 5553 5547 5544 5541 5540 5541 5541 5544 5545 5546 5547 5549 5553 5559 5565 5569 5571 5574 5583 5589 5594 5600 5606 5612 5616
Wind_Speed
41 39 41 44 47 50 52 55 57 58 58 61 60 60 57 55 54 53 53 54 49 42 42 34 35 33 34 33 33 33 30 26
45 44 47 49 53 57 61 62 65 68 69 68 70 71 71 69 64 61 58 58 58 49 44 41 37 35 35 38 35 35 31 29
47 48 51 54 58 63 66 68 70 76 78 79 80 80 80 80 78 74 67 61 63 55 48 45 40 38 39 38 39 37 35 29
48 50 53 59 64 69 74 77 78 78 69 65 67 74 66 72 77 82 83 71 64 65 55 50 44 39 41 39 41 39 38 33
50 53 57 62 67 74 78 76 64 56 60 63 67 69 64 58 83 83 76 85 84 73 66 57 50 42 39 39 40 42 40 36
53 57 61 65 72 78 67 56 52 59 64 65 65 68 67 69 59 88 88 81 74 87 72 64 55 47 42 40 40 43 41 38
55 60 65 70 70 57 54 50 63 52 51 56 63 66 66 60 62 51 84 89 83 57 71 70 62 52 48 44 39 46 44 40
57 63 68 70 59 52 54 59 57 55 57 54 57 59 60 66 60 51 48 90 87 79 71 76 69 55 49 45 40 46 45 41
57 63 65 55 52 54 57 59 47 47 46 46 44 48 49 56 63 55 49 80 85 92 75 77 76 58 52 48 41 43 45 45
56 60 51 48 46 48 57 46 42 41 40 36 37 38 39 48 54 62 50 49 91 90 73 62 64 61 55 50 42 43 48 45
55 51 44 45 46 48 46 43 38 35 32 30 25 19 32 43 54 63 45 65 59 96 73 50 69 66 56 51 44 43 50 48
54 48 38 44 44 47 43 35 34 28 26 23 19 9 14 33 46 55 45 46 70 80 71 51 44 66 53 51 47 45 48 50
50 43 35 41 46 42 35 28 29 24 20 19 15 10 1 19 29 35 39 44 73 84 75 61 57 60 54 53 49 46 45 49
44 40 35 37 37 36 30 24 24 23 12 13 7 10 7 15 23 24 31 37 56 64 68 53 56 52 55 53 51 50 47 46
44 37 37 33 37 32 29 23 20 22 14 8 10 10 9 13 12 31 31 51 59 66 73 65 67 64 63 55 55 52 47 45
40 36 35 34 34 33 26 23 21 21 21 14 12 12 13 14 21 15 18 27 45 22 39 65 57 61 62 54 54 48 47 50
39 36 36 34 33 36 27 20 23 23 25 22 19 18 18 18 19 19 23 23 31 21 25 37 35 42 56 56 52 52 52 50
39 37 33 34 32 28 29 23 16 25 25 28 26 24 24 25 25 25 23 21 23 28 26 36 36 36 42 50 52 52 50 50
39 39 33 33 32 30 26 22 18 15 25 30 32 30 29 30 31 31 29 29 29 30 33 34 34 35 36 38 47 53 53 53
Wind_Direction
287 282 278 278 276 272 270 270 267 263 265 266 263 261 259 258 255 252 254 254 254 251 257 257 260 261 260 260 263 263 261 252
281 282 282 284 285 283 280 277 277 273 268 266 265 263 260 256 255 256 248 248 251 250 248 252 253 255 259 257 258 263 259 258
288 291 294 296 294 292 289 286 283 285 280 275 271 266 260 258 256 255 249 243 245 248 244 246 246 250 252 257 257 259 259 259
295 300 301 302 302 302 299 298 294 289 282 276 272 270 258 250 250 251 250 243 238 245 241 240 242 244 245 251 252 254 258 255
305 307 308 307 305 300 298 298 295 278 278 276 271 269 262 254 237 233 235 245 243 240 244 236 236 236 239 245 246 250 254 254
308 309 310 307 304 305 297 292 290 285 279 276 269 267 262 258 251 236 223 225 233 236 233 238 228 229 231 239 241 246 250 251
309 311 310 309 308 293 291 291 307 296 288 279 268 260 259 252 242 243 232 218 223 227 219 237 224 225 228 238 239 240 246 248
313 314 313 313 304 293 293 305 306 297 292 283 271 263 254 243 236 237 240 221 214 219 225 226 220 220 221 232 236 236 241 246
314 316 315 309 313 308 308 312 308 306 299 291 279 262 248 237 227 230 240 221 216 211 221 219 220 216 220 226 230 232 235 241
316 318 310 309 313 313 320 312 320 321 312 305 293 267 239 228 216 217 226 213 213 213 214 204 206 212 216 223 221 229 234 237
318 316 305 309 321 322 328 311 326 327 328 321 310 272 230 212 211 209 217 224 224 220 216 208 200 211 208 218 216 223 233 237
320 317 307 311 323 331 325 308 324 331 342 339 341 338 219 209 208 203 216 207 219 218 209 206 193 203 207 210 216 222 232 238
321 318 308 312 321 330 319 307 320 327 348 0 15 36 148 204 201 214 227 214 209 213 213 218 205 200 206 216 219 226 233 239
320 317 309 314 326 330 317 296 311 315 333 333 322 32 116 169 193 241 209 205 209 216 221 223 225 209 210 216 220 226 233 240
320 318 309 309 317 329 324 277 291 300 297 301 292 220 213 221 204 205 232 207 209 214 217 220 220 216 211 216 221 224 230 242
319 316 306 300 308 326 324 298 268 279 281 269 259 259 248 241 216 211 210 209 201 226 224 213 214 202 211 210 220 229 232 243
318 313 302 301 301 312 329 322 261 257 267 268 255 252 250 260 260 246 228 233 213 219 216 215 192 207 211 220 223 226 231 238
314 314 303 301 293 309 321 317 319 237 237 257 258 252 249 251 253 253 252 242 241 249 236 232 240 225 215 222 230 236 239 246
311 311 303 289 295 298 311 323 321 280 259 238 244 252 252 251 249 247 245 242 246 249 246 247 247 240 239 235 235 236 239 244